owner,sensor,date,latitude,longitude,vertical_datum,direction_of_sea_water_velocity,sea_water_speed,upward_sea_water_velocity,qcFlag 
TABS,ioos:station:wmo:42049:1,2012-11-01T00:00:00Z,28.3507,-96.0058,2.0,244.5570438,23.7426536,-99999.0,'11111222,11111222,99999999' 
TABS,ioos:station:wmo:42049:1,2012-11-01T00:30:00Z,28.3507,-96.0058,2.0,252.5702758,24.50510151,-99999.0,'11111222,11111222,99999999' 
TABS,ioos:station:wmo:42049:1,2012-11-01T01:00:00Z,28.3507,-96.0058,2.0,263.3700185,22.52058836,-99999.0,'11111222,11111222,99999999' 
TABS,ioos:station:wmo:42049:1,2012-11-01T01:30:00Z,28.3507,-96.0058,2.0,265.4245224,19.93351449,-99999.0,'11111222,11111222,99999999' 
TABS,ioos:station:wmo:42049:1,2012-11-01T02:00:00Z,28.3507,-96.0058,2.0,258.7265903,18.26233829,-99999.0,'11111222,11111222,99999999' 
TABS,ioos:station:wmo:42049:1,2012-11-01T02:30:00Z,28.3507,-96.0058,2.0,245.6315891,19.36516718,-99999.0,'11111222,11111222,99999999' 
TABS,ioos:station:wmo:42049:1,2012-11-01T03:00:00Z,28.3507,-96.0058,2.0,232.0099274,18.82959638,-99999.0,'11111222,11111222,99999999' 
TABS,ioos:station:wmo:42049:1,2012-11-01T03:30:00Z,28.3507,-96.0058,2.0,225.2914483,22.21758313,-99999.0,'11111222,11111222,99999999' 
TABS,ioos:station:wmo:42049:1,2012-11-01T04:00:00Z,28.3507,-96.0058,2.0,215.8863248,24.24156967,-99999.0,'11111222,11111222,99999999' 
TABS,ioos:station:wmo:42049:1,2012-11-01T04:30:00Z,28.3507,-96.0058,2.0,210.5283032,22.580155,-99999.0,'11111222,11111222,99999999' 
TABS,ioos:station:wmo:42049:1,2012-11-01T05:00:00Z,28.3507,-96.0058,2.0,206.5319507,23.4161077,-99999.0,'11111222,11111222,99999999' 
TABS,ioos:station:wmo:42049:1,2012-11-01T05:30:00Z,28.3507,-96.0058,2.0,202.0383644,21.08031546,-99999.0,'11111222,11111222,99999999' 
TABS,ioos:station:wmo:42049:1,2012-11-01T06:00:00Z,28.3507,-96.0058,2.0,194.0795001,22.36179107,-99999.0,'11111222,11111222,99999999' 
TABS,ioos:station:wmo:42049:1,2012-11-01T06:30:00Z,28.3507,-96.0058,2.0,198.3955321,18.50565319,-99999.0,'11111222,11111222,99999999' 
TABS,ioos:station:wmo:42049:1,2012-11-01T07:00:00Z,28.3507,-96.0058,2.0,191.2875352,20.28233221,-99999.0,'11111222,11111222,99999999' 
TABS,ioos:station:wmo:42049:1,2012-11-01T07:30:00Z,28.3507,-96.0058,2.0,188.3507952,19.07222588,-99999.0,'11111222,11111222,99999999' 
TABS,ioos:station:wmo:42049:1,2012-11-01T08:00:00Z,28.3507,-96.0058,2.0,192.1834176,21.60666564,-99999.0,'11111222,11111222,99999999' 
TABS,ioos:station:wmo:42049:1,2012-11-01T08:30:00Z,28.3507,-96.0058,2.0,194.0176401,22.70618638,-99999.0,'11111222,11111222,99999999' 
TABS,ioos:station:wmo:42049:1,2012-11-01T09:00:00Z,28.3507,-96.0058,2.0,195.9552419,23.3911308,-99999.0,'11111222,11111222,99999999' 
TABS,ioos:station:wmo:42049:1,2012-11-01T09:30:00Z,28.3507,-96.0058,2.0,183.2631132,20.5533282,-99999.0,'11111222,11111222,99999999' 
TABS,ioos:station:wmo:42049:1,2012-11-01T10:00:00Z,28.3507,-96.0058,2.0,176.364191,20.5012585,-99999.0,'11111222,11111222,99999999' 
TABS,ioos:station:wmo:42049:1,2012-11-01T10:30:00Z,28.3507,-96.0058,2.0,173.4730413,21.02627404,-99999.0,'11111222,11111222,99999999' 
TABS,ioos:station:wmo:42049:1,2012-11-01T11:00:00Z,28.3507,-96.0058,2.0,174.1522178,20.8082772,-99999.0,'11111222,11111222,99999999' 
TABS,ioos:station:wmo:42049:1,2012-11-01T11:30:00Z,28.3507,-96.0058,2.0,173.8487449,21.74519027,-99999.0,'11111222,11111222,99999999' 
TABS,ioos:station:wmo:42049:1,2012-11-01T12:00:00Z,28.3507,-96.0058,2.0,176.1424136,21.99983864,-99999.0,'11111222,11111222,99999999' 
TABS,ioos:station:wmo:42049:1,2012-11-01T12:30:00Z,28.3507,-96.0058,2.0,170.8056731,23.53232883,-99999.0,'11111222,11111222,99999999' 
TABS,ioos:station:wmo:42049:1,2012-11-01T13:00:00Z,28.3507,-96.0058,2.0,175.2801035,23.82077245,-99999.0,'11111222,11111222,99999999' 
TABS,ioos:station:wmo:42049:1,2012-11-01T13:30:00Z,28.3507,-96.0058,2.0,176.9557758,24.10401004,-99999.0,'11111222,11111222,99999999' 
TABS,ioos:station:wmo:42049:1,2012-11-01T14:00:00Z,28.3507,-96.0058,2.0,176.9367233,23.95422301,-99999.0,'11111222,11111222,99999999' 
TABS,ioos:station:wmo:42049:1,2012-11-01T14:30:00Z,28.3507,-96.0058,2.0,172.6217907,23.59535759,-99999.0,'11111222,11111222,99999999' 
TABS,ioos:station:wmo:42049:1,2012-11-01T15:00:00Z,28.3507,-96.0058,2.0,175.3288665,20.01647821,-99999.0,'11111222,11111222,99999999' 
TABS,ioos:station:wmo:42049:1,2012-11-01T15:30:00Z,28.3507,-96.0058,2.0,176.8255983,22.57463399,-99999.0,'11111222,11111222,99999999' 
TABS,ioos:station:wmo:42049:1,2012-11-01T16:00:00Z,28.3507,-96.0058,2.0,164.2254395,20.70994447,-99999.0,'11111222,11111222,99999999' 
TABS,ioos:station:wmo:42049:1,2012-11-01T16:30:00Z,28.3507,-96.0058,2.0,174.7861893,18.92830949,-99999.0,'11111222,11111222,99999999' 
TABS,ioos:station:wmo:42049:1,2012-11-01T17:00:00Z,28.3507,-96.0058,2.0,167.6910838647,22.609743474883,-99999.0,'1111122,1111122,1199999999' 
TABS,ioos:station:wmo:42049:1,2012-11-01T17:30:00Z,28.3507,-96.0058,2.0,189.35834449936,23.553481695919,-99999.0,'1111122,1111122,1199999999' 
TABS,ioos:station:wmo:42049:1,2012-11-01T18:00:00Z,28.3507,-96.0058,2.0,184.15000254423,21.556521055124,-99999.0,'1111122,1111122,1199999999' 
TABS,ioos:station:wmo:42049:1,2012-11-01T18:30:00Z,28.3507,-96.0058,2.0,192.77746677063,22.743203380351,-99999.0,'1111122,1111122,1199999999' 
TABS,ioos:station:wmo:42049:1,2012-11-01T19:00:00Z,28.3507,-96.0058,2.0,187.58587450127,21.588943929706,-99999.0,'1111122,1111122,1199999999' 
TABS,ioos:station:wmo:42049:1,2012-11-01T19:30:00Z,28.3507,-96.0058,2.0,185.13546748835,21.114757872161,-99999.0,'1111122,1111122,1199999999' 
TABS,ioos:station:wmo:42049:1,2012-11-01T20:00:00Z,28.3507,-96.0058,2.0,195.01489164967,19.454194920376,-99999.0,'1111122,1111122,1199999999' 
TABS,ioos:station:wmo:42049:1,2012-11-01T20:30:00Z,28.3507,-96.0058,2.0,214.56678695752,17.21990998815,-99999.0,'1111122,1111122,1199999999' 
TABS,ioos:station:wmo:42049:1,2012-11-01T21:00:00Z,28.3507,-96.0058,2.0,220.40165859048,15.876151926711,-99999.0,'1111122,1111122,1199999999' 
TABS,ioos:station:wmo:42049:1,2012-11-01T21:30:00Z,28.3507,-96.0058,2.0,230.16058330352,15.172372919224,-99999.0,'1111122,1111122,1199999999' 
TABS,ioos:station:wmo:42049:1,2012-11-01T22:00:00Z,28.3507,-96.0058,2.0,243.66962887775,15.285888917561,-99999.0,'1111122,1111122,1199999999' 
TABS,ioos:station:wmo:42049:1,2012-11-01T22:30:00Z,28.3507,-96.0058,2.0,246.90062285821,15.165915732326,-99999.0,'1111122,1111122,1199999999' 
TABS,ioos:station:wmo:42049:1,2012-11-01T23:00:00Z,28.3507,-96.0058,2.0,248.88473471148,17.987740269417,-99999.0,'1111122,1111122,1199999999' 
TABS,ioos:station:wmo:42049:1,2012-11-01T23:30:00Z,28.3507,-96.0058,2.0,259.64490877985,18.359019581666,-99999.0,'1111122,1111122,1199999999' 
TABS,ioos:station:wmo:42049:1,2012-11-02T00:00:00Z,28.3507,-96.0058,2.0,262.39568417227,19.572125587171,-99999.0,'1111122,1111122,1199999999' 
TABS,ioos:station:wmo:42049:1,2012-11-02T00:30:00Z,28.3507,-96.0058,2.0,265.72181566942,18.230798117471,-99999.0,'1111122,1111122,1199999999' 
TABS,ioos:station:wmo:42049:1,2012-11-02T01:00:00Z,28.3507,-96.0058,2.0,264.46311763752,19.691876497683,-99999.0,'1111122,1111122,1199999999' 
TABS,ioos:station:wmo:42049:1,2012-11-02T01:30:00Z,28.3507,-96.0058,2.0,258.88966143241,18.578194207188,-99999.0,'1111122,1111122,1199999999' 
TABS,ioos:station:wmo:42049:1,2012-11-02T02:00:00Z,28.3507,-96.0058,2.0,258.17332859823,17.613906437812,-99999.0,'1111122,1111122,1199999999' 
TABS,ioos:station:wmo:42049:1,2012-11-02T02:30:00Z,28.3507,-96.0058,2.0,255.0785445332,18.524656542025,-99999.0,'1111122,1111122,1199999999' 
TABS,ioos:station:wmo:42049:1,2012-11-02T03:00:00Z,28.3507,-96.0058,2.0,263.34461067079,19.672569735548,-99999.0,'1111122,1111122,1199999999' 
TABS,ioos:station:wmo:42049:1,2012-11-02T03:30:00Z,28.3507,-96.0058,2.0,263.76052813615,18.217917004971,-99999.0,'1111122,1111122,1199999999' 
TABS,ioos:station:wmo:42049:1,2012-11-02T04:00:00Z,28.3507,-96.0058,2.0,262.61936364116,17.515119183151,-99999.0,'1111122,1111122,1199999999' 
TABS,ioos:station:wmo:42049:1,2012-11-02T04:30:00Z,28.3507,-96.0058,2.0,271.83977731765,16.508509926701,-99999.0,'1111122,1111122,1199999999' 
TABS,ioos:station:wmo:42049:1,2012-11-02T05:00:00Z,28.3507,-96.0058,2.0,273.62001047848,14.729388989364,-99999.0,'1111122,1111122,1199999999' 
TABS,ioos:station:wmo:42049:1,2012-11-02T05:30:00Z,28.3507,-96.0058,2.0,277.89478967542,12.740757434313,-99999.0,'1111122,1111122,1199999999' 
TABS,ioos:station:wmo:42049:1,2012-11-02T06:00:00Z,28.3507,-96.0058,2.0,278.53957594002,12.86260082565,-99999.0,'1111122,1111122,1199999999' 
TABS,ioos:station:wmo:42049:1,2012-11-02T06:30:00Z,28.3507,-96.0058,2.0,290.84308982951,11.213853039879,-99999.0,'1111122,1111122,1199999999' 
TABS,ioos:station:wmo:42049:1,2012-11-02T07:00:00Z,28.3507,-96.0058,2.0,279.74210109171,11.110216019502,-99999.0,'1111122,1111122,1199999999' 
TABS,ioos:station:wmo:42049:1,2012-11-02T07:30:00Z,28.3507,-96.0058,2.0,285.88385373392,11.509448292599,-99999.0,'1111122,1111122,1199999999' 
TABS,ioos:station:wmo:42049:1,2012-11-02T08:00:00Z,28.3507,-96.0058,2.0,284.54560971478,7.366098017268,-99999.0,'1111122,1111122,1199999999' 
TABS,ioos:station:wmo:42049:1,2012-11-02T08:30:00Z,28.3507,-96.0058,2.0,291.21114910177,8.2917368506242,-99999.0,'1111122,1111122,1199999999' 
TABS,ioos:station:wmo:42049:1,2012-11-02T09:00:00Z,28.3507,-96.0058,2.0,311.25235502523,8.113722943261,-99999.0,'1111122,1111122,1199999999' 
TABS,ioos:station:wmo:42049:1,2012-11-02T09:30:00Z,28.3507,-96.0058,2.0,306.18589021075,7.7065491628874,-99999.0,'1111122,1111122,1199999999' 
TABS,ioos:station:wmo:42049:1,2012-11-02T10:00:00Z,28.3507,-96.0058,2.0,301.1671726461,4.3475165324585,-99999.0,'1111122,1111122,1199999999' 
TABS,ioos:station:wmo:42049:1,2012-11-02T10:30:00Z,28.3507,-96.0058,2.0,334.42270922256,1.2971121771073,-99999.0,'1111122,1111122,1199999999' 
TABS,ioos:station:wmo:42049:1,2012-11-02T11:00:00Z,28.3507,-96.0058,2.0,321.80131482398,3.104834939252,-99999.0,'1111122,1111122,1199999999' 
TABS,ioos:station:wmo:42049:1,2012-11-02T11:30:00Z,28.3507,-96.0058,2.0,280.78429786756,0.42755116652864,-99999.0,'1111122,1111122,1199999999' 
TABS,ioos:station:wmo:42049:1,2012-11-02T12:00:00Z,28.3507,-96.0058,2.0,242.81219313572,2.0573040611441,-99999.0,'1111122,1111122,1199999999' 
TABS,ioos:station:wmo:42049:1,2012-11-02T12:30:00Z,28.3507,-96.0058,2.0,231.00900595749,0.54037024344425,-99999.0,'1111122,1111122,1199999999' 
TABS,ioos:station:wmo:42049:1,2012-11-02T13:00:00Z,28.3507,-96.0058,2.0,99.462322208026,1.8856563843924,-99999.0,'1111122,1111122,1199999999' 
TABS,ioos:station:wmo:42049:1,2012-11-02T13:30:00Z,28.3507,-96.0058,2.0,167.15408111365,5.4873399748877,-99999.0,'1111122,1111122,1199999999' 
TABS,ioos:station:wmo:42049:1,2012-11-02T15:30:00Z,28.3507,-96.0058,2.0,149.05920770698,8.5577800859802,-99999.0,'1111122,1111122,1199999999' 
TABS,ioos:station:wmo:42049:1,2012-11-02T16:00:00Z,28.3507,-96.0058,2.0,148.00313028064,7.1337858111945,-99999.0,'1111122,1111122,1199999999' 
TABS,ioos:station:wmo:42049:1,2012-11-02T16:30:00Z,28.3507,-96.0058,2.0,154.55754166647,7.0762772698644,-99999.0,'1111122,1111122,1199999999' 
TABS,ioos:station:wmo:42049:1,2012-11-02T17:00:00Z,28.3507,-96.0058,2.0,143.85281563135,8.0866433085675,-99999.0,'1111122,1111122,1199999999' 
TABS,ioos:station:wmo:42049:1,2012-11-02T17:30:00Z,28.3507,-96.0058,2.0,145.78926542256,7.6302162485738,-99999.0,'1111122,1111122,1199999999' 
TABS,ioos:station:wmo:42049:1,2012-11-02T23:00:00Z,28.3507,-96.0058,2.0,199.30502811883,10.828887292792,-99999.0,'1111122,1111122,1199999999' 
TABS,ioos:station:wmo:42049:1,2012-11-02T23:30:00Z,28.3507,-96.0058,2.0,192.1723454011,12.378291481461,-99999.0,'1111122,1111122,1199999999' 
TABS,ioos:station:wmo:42049:1,2012-11-03T00:00:00Z,28.3507,-96.0058,2.0,202.96377305985,12.174834701137,-99999.0,'1111122,1111122,1199999999' 
TABS,ioos:station:wmo:42049:1,2012-11-03T00:30:00Z,28.3507,-96.0058,2.0,214.66049506756,13.592104325674,-99999.0,'1111122,1111122,1199999999' 
TABS,ioos:station:wmo:42049:1,2012-11-03T01:00:00Z,28.3507,-96.0058,2.0,220.50344383938,15.242640847307,-99999.0,'1111122,1111122,1199999999' 
TABS,ioos:station:wmo:42049:1,2012-11-03T01:30:00Z,28.3507,-96.0058,2.0,228.24803934897,16.473767025183,-99999.0,'1111122,1111122,1199999999' 
TABS,ioos:station:wmo:42049:1,2012-11-03T02:00:00Z,28.3507,-96.0058,2.0,234.25057529434,16.671187720136,-99999.0,'1111122,1111122,1199999999' 
TABS,ioos:station:wmo:42049:1,2012-11-03T02:30:00Z,28.3507,-96.0058,2.0,239.11666660673,17.105285732779,-99999.0,'1111122,1111122,1199999999' 
TABS,ioos:station:wmo:42049:1,2012-11-03T03:00:00Z,28.3507,-96.0058,2.0,247.48576254777,18.359261967737,-99999.0,'1111122,1111122,1199999999' 
TABS,ioos:station:wmo:42049:1,2012-11-03T03:30:00Z,28.3507,-96.0058,2.0,248.28900035789,17.652220823454,-99999.0,'1111122,1111122,1199999999' 
TABS,ioos:station:wmo:42049:1,2012-11-03T04:00:00Z,28.3507,-96.0058,2.0,254.55113670043,17.118516290847,-99999.0,'1111122,1111122,1199999999' 
TABS,ioos:station:wmo:42049:1,2012-11-03T04:30:00Z,28.3507,-96.0058,2.0,255.93373516751,18.51517215691,-99999.0,'1111122,1111122,1199999999' 
TABS,ioos:station:wmo:42049:1,2012-11-03T05:00:00Z,28.3507,-96.0058,2.0,262.12949381817,19.352297021284,-99999.0,'1111122,1111122,1199999999' 
TABS,ioos:station:wmo:42049:1,2012-11-03T05:30:00Z,28.3507,-96.0058,2.0,262.31169555733,19.808064014436,-99999.0,'1111122,1111122,1199999999' 
TABS,ioos:station:wmo:42049:1,2012-11-03T07:00:00Z,28.3507,-96.0058,2.0,261.54076854726,18.218199691517,-99999.0,'1111122,1111122,1199999999' 
TABS,ioos:station:wmo:42049:1,2012-11-03T07:30:00Z,28.3507,-96.0058,2.0,266.07656615394,18.122472237529,-99999.0,'1111122,1111122,1199999999' 
TABS,ioos:station:wmo:42049:1,2012-11-03T08:00:00Z,28.3507,-96.0058,2.0,261.70356815207,16.563339035352,-99999.0,'1111122,1111122,1199999999' 
TABS,ioos:station:wmo:42049:1,2012-11-03T08:30:00Z,28.3507,-96.0058,2.0,264.69302912899,17.515079217634,-99999.0,'1111122,1111122,1199999999' 
TABS,ioos:station:wmo:42049:1,2012-11-03T09:00:00Z,28.3507,-96.0058,2.0,265.0677223928,15.236420183232,-99999.0,'1111122,1111122,1199999999' 
TABS,ioos:station:wmo:42049:1,2012-11-03T09:30:00Z,28.3507,-96.0058,2.0,265.36238494219,14.346971805925,-99999.0,'1111122,1111122,1199999999' 
TABS,ioos:station:wmo:42049:1,2012-11-03T10:00:00Z,28.3507,-96.0058,2.0,263.6154371537,9.9819086351258,-99999.0,'1111122,1111122,1199999999' 
TABS,ioos:station:wmo:42049:1,2012-11-03T10:30:00Z,28.3507,-96.0058,2.0,254.03462184709,11.815756429446,-99999.0,'1111122,1111122,1199999999' 
TABS,ioos:station:wmo:42049:1,2012-11-03T11:00:00Z,28.3507,-96.0058,2.0,233.88771888287,12.403084293836,-99999.0,'1111122,1111122,1199999999' 
TABS,ioos:station:wmo:42049:1,2012-11-03T11:30:00Z,28.3507,-96.0058,2.0,228.44141694244,11.426237350939,-99999.0,'1111122,1111122,1199999999' 
TABS,ioos:station:wmo:42049:1,2012-11-03T12:00:00Z,28.3507,-96.0058,2.0,236.22267454869,14.56921754934,-99999.0,'1111122,1111122,1199999999' 
TABS,ioos:station:wmo:42049:1,2012-11-03T12:30:00Z,28.3507,-96.0058,2.0,233.4808551648,14.048263237853,-99999.0,'1111122,1111122,1199999999' 
TABS,ioos:station:wmo:42049:1,2012-11-03T13:00:00Z,28.3507,-96.0058,2.0,220.44899788411,15.506243903667,-99999.0,'1111122,1111122,1199999999' 
TABS,ioos:station:wmo:42049:1,2012-11-03T13:30:00Z,28.3507,-96.0058,2.0,216.29605293802,18.970951478511,-99999.0,'1111122,1111122,1199999999' 
TABS,ioos:station:wmo:42049:1,2012-11-03T14:00:00Z,28.3507,-96.0058,2.0,215.84482137826,17.998880520744,-99999.0,'1111122,1111122,1199999999' 
TABS,ioos:station:wmo:42049:1,2012-11-03T14:30:00Z,28.3507,-96.0058,2.0,213.74578721619,19.963669502374,-99999.0,'1111122,1111122,1199999999' 
TABS,ioos:station:wmo:42049:1,2012-11-03T15:00:00Z,28.3507,-96.0058,2.0,215.30118880855,19.433283304681,-99999.0,'1111122,1111122,1199999999' 
TABS,ioos:station:wmo:42049:1,2012-11-03T15:30:00Z,28.3507,-96.0058,2.0,219.16150297709,23.008400639766,-99999.0,'1111122,1111122,1199999999' 
TABS,ioos:station:wmo:42049:1,2012-11-03T16:00:00Z,28.3507,-96.0058,2.0,216.01297339056,23.402617374986,-99999.0,'1111122,1111122,1199999999' 
TABS,ioos:station:wmo:42049:1,2012-11-03T16:30:00Z,28.3507,-96.0058,2.0,215.95056943712,24.681177038383,-99999.0,'1111122,1111122,1199999999' 
TABS,ioos:station:wmo:42049:1,2012-11-03T18:00:00Z,28.3507,-96.0058,2.0,210.24974040647,24.634254606137,-99999.0,'1111122,1111122,1199999999' 
TABS,ioos:station:wmo:42049:1,2012-11-03T18:30:00Z,28.3507,-96.0058,2.0,213.10968529478,25.19022826415,-99999.0,'1111122,1111122,1199999999' 
TABS,ioos:station:wmo:42049:1,2012-11-03T19:00:00Z,28.3507,-96.0058,2.0,211.72434846259,23.771798417453,-99999.0,'1111122,1111122,1199999999' 
TABS,ioos:station:wmo:42049:1,2012-11-03T19:30:00Z,28.3507,-96.0058,2.0,212.6850974907,24.036083291585,-99999.0,'1111122,1111122,1199999999' 
TABS,ioos:station:wmo:42049:1,2012-11-03T20:00:00Z,28.3507,-96.0058,2.0,217.40166639894,21.764937399405,-99999.0,'1111122,1111122,1199999999' 
TABS,ioos:station:wmo:42049:1,2012-11-03T20:30:00Z,28.3507,-96.0058,2.0,211.89542729936,20.989056672466,-99999.0,'1111122,1111122,1199999999' 
TABS,ioos:station:wmo:42049:1,2012-11-03T21:00:00Z,28.3507,-96.0058,2.0,222.51631649479,23.986381552873,-99999.0,'1111122,1111122,1199999999' 
TABS,ioos:station:wmo:42049:1,2012-11-03T21:30:00Z,28.3507,-96.0058,2.0,236.58504442621,24.260092745082,-99999.0,'1111122,1111122,1199999999' 
TABS,ioos:station:wmo:42049:1,2012-11-03T22:00:00Z,28.3507,-96.0058,2.0,239.71659414639,25.997588349691,-99999.0,'1111122,1111122,1199999999' 
TABS,ioos:station:wmo:42049:1,2012-11-03T22:30:00Z,28.3507,-96.0058,2.0,236.67326929964,29.740849012764,-99999.0,'1111122,1111122,1199999999' 
TABS,ioos:station:wmo:42049:1,2012-11-03T23:00:00Z,28.3507,-96.0058,2.0,245.09766390128,30.517288542726,-99999.0,'1111122,1111122,1199999999' 
TABS,ioos:station:wmo:42049:1,2012-11-03T23:30:00Z,28.3507,-96.0058,2.0,253.91340449018,30.098538170483,-99999.0,'1111122,1111122,1199999999' 
TABS,ioos:station:wmo:42049:1,2012-11-04T00:00:00Z,28.3507,-96.0058,2.0,254.35034888266,29.804892215876,-99999.0,'1111122,1111122,1199999999' 
TABS,ioos:station:wmo:42049:1,2012-11-04T00:30:00Z,28.3507,-96.0058,2.0,256.27078369957,28.061774712231,-99999.0,'1111122,1111122,1199999999' 
TABS,ioos:station:wmo:42049:1,2012-11-04T01:00:00Z,28.3507,-96.0058,2.0,258.56718132403,29.260594662447,-99999.0,'1111122,1111122,1199999999' 
TABS,ioos:station:wmo:42049:1,2012-11-04T01:30:00Z,28.3507,-96.0058,2.0,255.02690398597,29.222173088256,-99999.0,'1111122,1111122,1199999999' 
TABS,ioos:station:wmo:42049:1,2012-11-04T16:00:00Z,28.3507,-96.0058,2.0,226.96444008629,26.609924840179,-99999.0,'1111122,1111122,1199999999' 
TABS,ioos:station:wmo:42049:1,2012-11-04T16:30:00Z,28.3507,-96.0058,2.0,226.49276090677,26.872106355848,-99999.0,'1111122,1111122,1199999999' 
TABS,ioos:station:wmo:42049:1,2012-11-04T17:00:00Z,28.3507,-96.0058,2.0,223.7499977401,26.579398036825,-99999.0,'1111122,1111122,1199999999' 
TABS,ioos:station:wmo:42049:1,2012-11-04T17:30:00Z,28.3507,-96.0058,2.0,220.8513141401,28.833586318736,-99999.0,'1111122,1111122,1199999999' 
TABS,ioos:station:wmo:42049:1,2012-11-04T18:00:00Z,28.3507,-96.0058,2.0,226.02473772159,29.653729950885,-99999.0,'1111122,1111122,1199999999' 
TABS,ioos:station:wmo:42049:1,2012-11-04T18:30:00Z,28.3507,-96.0058,2.0,224.17670227123,25.09781066149,-99999.0,'1111122,1111122,1199999999' 
TABS,ioos:station:wmo:42049:1,2012-11-04T19:00:00Z,28.3507,-96.0058,2.0,225.93408755397,28.627486791544,-99999.0,'1111122,1111122,1199999999' 
TABS,ioos:station:wmo:42049:1,2012-11-04T19:30:00Z,28.3507,-96.0058,2.0,232.40650295184,29.456349060941,-99999.0,'1111122,1111122,1199999999' 
TABS,ioos:station:wmo:42049:1,2012-11-04T20:00:00Z,28.3507,-96.0058,2.0,233.21507934711,26.970029662572,-99999.0,'1111122,1111122,1199999999' 
TABS,ioos:station:wmo:42049:1,2012-11-04T20:30:00Z,28.3507,-96.0058,2.0,232.07678758966,27.09057769779,-99999.0,'1111122,1111122,1199999999' 
TABS,ioos:station:wmo:42049:1,2012-11-04T21:00:00Z,28.3507,-96.0058,2.0,234.33071075857,26.821888449548,-99999.0,'1111122,1111122,1199999999' 
TABS,ioos:station:wmo:42049:1,2012-11-04T21:30:00Z,28.3507,-96.0058,2.0,233.6195611621,24.816905528289,-99999.0,'1111122,1111122,1199999999' 
TABS,ioos:station:wmo:42049:1,2012-11-04T22:00:00Z,28.3507,-96.0058,2.0,233.90530089524,26.904462455139,-99999.0,'1111122,1111122,1199999999' 
TABS,ioos:station:wmo:42049:1,2012-11-04T22:30:00Z,28.3507,-96.0058,2.0,240.80885462636,30.160454240611,-99999.0,'1111122,1111122,1199999999' 
TABS,ioos:station:wmo:42049:1,2012-11-04T23:00:00Z,28.3507,-96.0058,2.0,250.36717520049,27.530481288928,-99999.0,'1111122,1111122,1199999999' 
TABS,ioos:station:wmo:42049:1,2012-11-04T23:30:00Z,28.3507,-96.0058,2.0,249.20347772961,28.165029735472,-99999.0,'1111122,1111122,1199999999' 
TABS,ioos:station:wmo:42049:1,2012-11-05T01:00:00Z,28.3507,-96.0058,2.0,262.51161344896,26.011847300797,-99999.0,'1111122,1111122,1199999999' 
TABS,ioos:station:wmo:42049:1,2012-11-05T01:30:00Z,28.3507,-96.0058,2.0,267.14477225478,27.904641191028,-99999.0,'1111122,1111122,1199999999' 
TABS,ioos:station:wmo:42049:1,2012-11-05T02:00:00Z,28.3507,-96.0058,2.0,263.94710389944,26.648566565577,-99999.0,'1111122,1111122,1199999999' 
TABS,ioos:station:wmo:42049:1,2012-11-05T02:30:00Z,28.3507,-96.0058,2.0,276.05716233165,26.15602607431,-99999.0,'1111122,1111122,1199999999' 
TABS,ioos:station:wmo:42049:1,2012-11-05T03:00:00Z,28.3507,-96.0058,2.0,280.00090741263,28.157858583351,-99999.0,'1111122,1111122,1199999999' 
TABS,ioos:station:wmo:42049:1,2012-11-05T03:30:00Z,28.3507,-96.0058,2.0,279.55036790055,25.675864152936,-99999.0,'1111122,1111122,1199999999' 
TABS,ioos:station:wmo:42049:1,2012-11-05T04:00:00Z,28.3507,-96.0058,2.0,282.14924292618,25.705738658906,-99999.0,'1111122,1111122,1199999999' 
TABS,ioos:station:wmo:42049:1,2012-11-05T04:30:00Z,28.3507,-96.0058,2.0,287.92601683779,25.277082505701,-99999.0,'1111122,1111122,1199999999' 
TABS,ioos:station:wmo:42049:1,2012-11-05T05:00:00Z,28.3507,-96.0058,2.0,288.753738439,18.755759115536,-99999.0,'1111122,1111122,1199999999' 
TABS,ioos:station:wmo:42049:1,2012-11-05T05:30:00Z,28.3507,-96.0058,2.0,294.08486337097,19.0154463529,-99999.0,'1111122,1111122,1199999999' 
TABS,ioos:station:wmo:42049:1,2012-11-05T06:00:00Z,28.3507,-96.0058,2.0,301.35581429097,18.045503595079,-99999.0,'1111122,1111122,1199999999' 
TABS,ioos:station:wmo:42049:1,2012-11-05T06:30:00Z,28.3507,-96.0058,2.0,300.78533506284,17.623280057923,-99999.0,'1111122,1111122,1199999999' 
TABS,ioos:station:wmo:42049:1,2012-11-05T07:00:00Z,28.3507,-96.0058,2.0,305.38110982116,16.165456999417,-99999.0,'1111122,1111122,1199999999' 
TABS,ioos:station:wmo:42049:1,2012-11-05T07:30:00Z,28.3507,-96.0058,2.0,301.5815434534,15.905703379606,-99999.0,'1111122,1111122,1199999999' 
TABS,ioos:station:wmo:42049:1,2012-11-05T08:00:00Z,28.3507,-96.0058,2.0,311.05902081843,16.564253680743,-99999.0,'1111122,1111122,1199999999' 
TABS,ioos:station:wmo:42049:1,2012-11-05T08:30:00Z,28.3507,-96.0058,2.0,314.48874843365,11.886938209648,-99999.0,'1111122,1111122,1199999999' 
TABS,ioos:station:wmo:42049:1,2012-11-05T10:30:00Z,28.3507,-96.0058,2.0,351.3968782213,5.4816785750352,-99999.0,'1111122,1111122,1199999999' 
TABS,ioos:station:wmo:42049:1,2012-11-05T11:00:00Z,28.3507,-96.0058,2.0,42.159978851215,5.4230987451825,-99999.0,'1111122,1111122,1199999999' 
TABS,ioos:station:wmo:42049:1,2012-11-05T11:30:00Z,28.3507,-96.0058,2.0,42.696695645059,5.1023621980412,-99999.0,'1111122,1111122,1199999999' 
TABS,ioos:station:wmo:42049:1,2012-11-05T12:00:00Z,28.3507,-96.0058,2.0,82.606953616265,4.5074715750629,-99999.0,'1111122,1111122,1199999999' 
TABS,ioos:station:wmo:42049:1,2012-11-05T12:30:00Z,28.3507,-96.0058,2.0,92.903818865096,9.6724195525215,-99999.0,'1111122,1111122,1199999999' 
TABS,ioos:station:wmo:42049:1,2012-11-05T13:00:00Z,28.3507,-96.0058,2.0,98.716821192523,11.87718821944,-99999.0,'1111122,1111122,1199999999' 